TimeMDT,TemperatureF,Dew PointF,Humidity,Sea Level PressureIn,VisibilityMPH,Wind Direction,Wind SpeedMPH,Gust SpeedMPH,PrecipitationIn,Events,Conditions,WindDirDegrees,DateUTC
12:54 AM,62.1,53.1,72,29.86,10.0,ESE,8.1,-,N/A,,Clear,110,2013-07-03 06:54:00
1:54 AM,61.0,52.0,72,29.84,10.0,ESE,8.1,-,N/A,,Clear,120,2013-07-03 07:54:00
2:54 AM,59.0,52.0,78,29.83,10.0,SE,4.6,-,N/A,,Partly Cloudy,130,2013-07-03 08:54:00
3:54 AM,59.0,52.0,78,29.83,10.0,ESE,5.8,-,N/A,,Clear,120,2013-07-03 09:54:00
4:54 AM,63.0,51.1,65,29.82,10.0,Calm,Calm,-,N/A,,Partly Cloudy,0,2013-07-03 10:54:00
5:54 AM,63.0,53.1,70,29.84,10.0,SSW,4.6,-,N/A,,Clear,210,2013-07-03 11:54:00
6:54 AM,70.0,57.0,63,29.85,10.0,SSW,5.8,-,N/A,,Mostly Cloudy,210,2013-07-03 12:54:00
7:54 AM,75.0,59.0,57,29.86,10.0,SW,4.6,-,N/A,,Partly Cloudy,230,2013-07-03 13:54:00
8:54 AM,79.0,55.0,44,29.87,10.0,WNW,5.8,-,N/A,,Clear,290,2013-07-03 14:54:00
9:54 AM,81.0,57.9,45,29.88,10.0,WNW,9.2,-,N/A,,Clear,300,2013-07-03 15:54:00
10:54 AM,82.9,55.0,38,29.88,10.0,NW,10.4,18.4,N/A,,Clear,310,2013-07-03 16:54:00
11:54 AM,86.0,51.1,30,29.87,10.0,NW,10.4,19.6,N/A,,Clear,320,2013-07-03 17:54:00
12:54 PM,87.1,51.1,29,29.86,10.0,NNW,12.7,19.6,N/A,,Clear,330,2013-07-03 18:54:00
1:54 PM,88.0,48.9,26,29.85,10.0,NNW,12.7,21.9,N/A,,Clear,340,2013-07-03 19:54:00
2:54 PM,89.1,50.0,26,29.84,10.0,NW,12.7,-,N/A,,Clear,320,2013-07-03 20:54:00
3:54 PM,90.0,48.9,24,29.83,10.0,West,10.4,19.6,N/A,,Clear,280,2013-07-03 21:54:00
4:54 PM,90.0,48.0,24,29.81,10.0,WNW,12.7,18.4,N/A,,Clear,300,2013-07-03 22:54:00
5:54 PM,88.0,50.0,27,29.80,10.0,NW,5.8,-,N/A,,Scattered Clouds,310,2013-07-03 23:54:00
6:54 PM,87.1,55.9,35,29.77,10.0,North,3.5,-,N/A,,Scattered Clouds,10,2013-07-04 00:54:00
7:54 PM,80.1,60.1,50,29.77,10.0,South,5.8,-,N/A,,Mostly Cloudy,170,2013-07-04 01:54:00
8:54 PM,79.0,57.0,47,29.78,10.0,ESE,9.2,-,N/A,,Mostly Cloudy,110,2013-07-04 02:54:00
9:54 PM,73.9,57.0,55,29.81,10.0,ESE,4.6,-,N/A,,Clear,110,2013-07-04 03:54:00
10:54 PM,69.1,57.0,65,29.84,10.0,South,4.6,-,N/A,,Clear,170,2013-07-04 04:54:00
11:54 PM,66.0,57.0,73,29.84,10.0,SE,4.6,-,N/A,,Clear,130,2013-07-04 05:54:00